Вернуться в каталог

ONEWEB-0169

АктивенСвязьPO
NORAD 48077·PAYLOAD·🇬🇧 United Kingdom

Запущен Mar 25, 2021 с Vostochny Cosmodrome

Loading…

Ближайшие Пролёты (ближайшие 24 часа)

TLE

СвежийSource: CelesTrak SupGP

Эпоха: Sep 14, 2026, 15:18 UTC

1 48077C 21025AM  26257.63767778 -.00000525  00000+0 -14397-2 0  2575
2 48077  87.8922 302.4300 0001865 100.4664 359.0015 13.13469049    11

Отслеживайте ONEWEB-0169 в реальном времени с AllMySat

Download on the App Store